Pine River, MN

4:05 AM CDT on July 23, 2017 (GMT -0500)
Pine River Regional

Weather History for KPWC - July, 2013

Change the Weather History Date:

Wednesday, July 31, 2013

  Actual Average Record
Temperature  
Mean Temperature 63 °F -  
Max Temperature 73 °F 77 °F 98 °F (2006)
Min Temperature 51 °F 54 °F 48 °F (1998)
Degree Days  
Heating Degree Days 2    
Growing Degree Days 13 (Base 50)    
Moisture  
Dew Point 54 °F    
Average Humidity 72    
Maximum Humidity 100    
Minimum Humidity 46    
Precipitation  
Precipitation 0.00 in - - ()
Sea Level Pressure  
Sea Level Pressure 30.07 in    
Wind  
Wind Speed 4 mph (WNW)    
Max Wind Speed 17 mph    
Max Gust Speed 23 mph    
Visibility 10 miles    
Events Fog    
Averages and records for this station are not official NWS values.
T = Trace of Precipitation, MM = Missing Value Source: NWS Daily Summary

Daily Weather History Graph

Daily Weather History Graph

Search for Another Location

Airport or City:

Trip Planner

Search our weather history database for the weather conditions in past years. The results will help you decide how hot, cold, wet, or windy it might be!

Date:

Astronomy

Jul. 31, 2013 Rise Set
Actual Time 5:56 AM CDT 8:50 PM CDT
Civil Twilight 5:21 AM CDT 9:25 PM CDT
Nautical Twilight 4:36 AM CDT 10:10 PM CDT
Astronomical Twilight 3:42 AM CDT 11:03 PM CDT
Moon 12:53 AM CDT (7/31) 4:08 PM CDT (7/31)
Length of Visible Light 16h 03m
Length of Day
14h 53m
Waning Crescent, 31% of the Moon is Illuminated
Jul 31
Waning Crescent
Aug 6
New
Aug 14
First Quarter
Aug 20
Full
Aug 28
Last Quarter

Hourly Weather History & Observations

Time (CDT) Temp. Dew Point Humidity Pressure Visibility Wind Dir Wind Speed Gust Speed Precip Events Conditions
12:12 AM 57.2 °F 57.2 °F 100% 30.08 in 1.0 mi Calm Calm - N/A   Mostly Cloudy
12:33 AM 55.4 °F 55.4 °F 100% 30.08 in 0.5 mi Calm Calm - N/A Fog Fog
12:52 AM 57.2 °F 57.2 °F 100% 30.08 in 1.8 mi Calm Calm - N/A   Mostly Cloudy
1:13 AM 57.2 °F 57.2 °F 100% 30.08 in 7.0 mi Calm Calm - N/A   Clear
2:12 AM 55.4 °F 55.4 °F 100% 30.08 in 10.0 mi Calm Calm - N/A   Clear
2:33 AM 59.0 °F 59.0 °F 100% 30.08 in 10.0 mi Calm Calm - N/A   Mostly Cloudy
2:53 AM 60.8 °F 60.8 °F 100% 30.08 in 7.0 mi Calm Calm - N/A   Overcast
3:13 AM 60.8 °F 60.8 °F 100% 30.08 in 10.0 mi Calm Calm - N/A   Overcast
3:32 AM 60.8 °F 60.8 °F 100% 30.08 in 10.0 mi Calm Calm - N/A   Overcast
3:53 AM 59.0 °F 59.0 °F 100% 30.08 in 10.0 mi Calm Calm - N/A   Mostly Cloudy
4:13 AM 59.0 °F 59.0 °F 100% 30.08 in 10.0 mi Calm Calm - N/A   Scattered Clouds
4:32 AM 59.0 °F 59.0 °F 100% 30.08 in 10.0 mi Calm Calm - N/A   Clear
4:52 AM 59.0 °F 59.0 °F 100% 30.08 in 10.0 mi Calm Calm - N/A   Clear
5:13 AM 59.0 °F 59.0 °F 100% 30.09 in 10.0 mi NW 3.5 mph - N/A   Mostly Cloudy
5:33 AM 59.0 °F 57.2 °F 94% 30.09 in 10.0 mi Calm Calm - N/A   Scattered Clouds
5:52 AM 57.2 °F 57.2 °F 100% 30.09 in 10.0 mi Calm Calm - N/A   Mostly Cloudy
6:13 AM 57.2 °F 57.2 °F 100% 30.08 in 7.0 mi SSW 3.5 mph - N/A   Mostly Cloudy
6:32 AM 57.2 °F 57.2 °F 100% 30.08 in 10.0 mi Calm Calm - N/A   Scattered Clouds
6:53 AM 57.2 °F 57.2 °F 100% 30.09 in 10.0 mi Calm Calm - N/A   Scattered Clouds
7:13 AM 59.0 °F 57.2 °F 94% 30.09 in 10.0 mi West 3.5 mph - N/A   Scattered Clouds
7:32 AM 59.0 °F 57.2 °F 94% 30.10 in 10.0 mi West 3.5 mph - N/A   Clear
7:53 AM 60.8 °F 57.2 °F 88% 30.10 in 10.0 mi WNW 3.5 mph - N/A   Clear
8:13 AM 60.8 °F 57.2 °F 88% 30.09 in 10.0 mi Calm Calm - N/A   Clear
8:33 AM 62.6 °F 57.2 °F 82% 30.09 in 10.0 mi West 4.6 mph - N/A   Clear
8:53 AM 64.4 °F 57.2 °F 77% 30.09 in 10.0 mi WNW 6.9 mph - N/A   Clear
9:13 AM 66.2 °F 57.2 °F 73% 30.08 in 10.0 mi WNW 4.6 mph - N/A   Clear
9:33 AM 66.2 °F 55.4 °F 68% 30.08 in 10.0 mi WNW 9.2 mph - N/A   Clear
9:53 AM 68.0 °F 57.2 °F 68% 30.08 in 10.0 mi NW 8.1 mph - N/A   Clear
10:12 AM 68.0 °F 53.6 °F 60% 30.08 in 10.0 mi NW 9.2 mph - N/A   Clear
10:33 AM 69.8 °F 53.6 °F 56% 30.08 in 10.0 mi WNW 8.1 mph - N/A   Clear
10:53 AM 69.8 °F 53.6 °F 56% 30.08 in 10.0 mi NW 6.9 mph - N/A   Clear
11:13 AM 69.8 °F 51.8 °F 53% 30.08 in 10.0 mi WNW 10.4 mph 16.1 mph N/A   Clear
11:33 AM 71.6 °F 51.8 °F 50% 30.07 in 10.0 mi WNW 15.0 mph 19.6 mph N/A   Clear
11:53 AM 71.6 °F 51.8 °F 50% 30.07 in 10.0 mi WNW 6.9 mph - N/A   Clear
12:13 PM 71.6 °F 51.8 °F 50% 30.07 in 10.0 mi NW 11.5 mph 19.6 mph N/A   Scattered Clouds
12:32 PM 71.6 °F 50.0 °F 46% 30.07 in 10.0 mi WNW 17.3 mph 23.0 mph N/A   Scattered Clouds
12:52 PM 71.6 °F 51.8 °F 50% 30.07 in 10.0 mi WNW 8.1 mph - N/A   Scattered Clouds
1:12 PM 71.6 °F 50.0 °F 46% 30.06 in 10.0 mi NW 17.3 mph 23.0 mph N/A   Clear
1:32 PM 71.6 °F 50.0 °F 46% 30.07 in 10.0 mi WNW 11.5 mph 21.9 mph N/A   Clear
1:53 PM 71.6 °F 51.8 °F 50% 30.07 in 10.0 mi WNW 8.1 mph 20.7 mph N/A   Clear
2:10 PM 71.6 °F 51.8 °F 50% 30.06 in 10.0 mi NW 13.8 mph 20.7 mph N/A   Clear
2:32 PM 71.6 °F 51.8 °F 50% 30.07 in 10.0 mi WNW 11.5 mph 16.1 mph N/A   Clear
2:53 PM 71.6 °F 50.0 °F 46% 30.07 in 10.0 mi West 10.4 mph 19.6 mph N/A   Scattered Clouds
3:13 PM 71.6 °F 51.8 °F 50% 30.06 in 10.0 mi WNW 12.7 mph 17.3 mph N/A   Scattered Clouds
3:33 PM 71.6 °F 51.8 °F 50% 30.06 in 10.0 mi NW 11.5 mph 18.4 mph N/A   Scattered Clouds
3:52 PM 71.6 °F 51.8 °F 50% 30.06 in 10.0 mi NW 13.8 mph 20.7 mph N/A   Scattered Clouds
4:13 PM 71.6 °F 51.8 °F 50% 30.06 in 10.0 mi WNW 9.2 mph 16.1 mph N/A   Scattered Clouds
4:32 PM 73.4 °F 51.8 °F 47% 30.05 in 10.0 mi WSW 11.5 mph 16.1 mph N/A   Scattered Clouds
4:52 PM 71.6 °F 51.8 °F 50% 30.05 in 10.0 mi WNW 10.4 mph 19.6 mph N/A   Mostly Cloudy
5:13 PM 71.6 °F 51.8 °F 50% 30.05 in 10.0 mi NW 13.8 mph 18.4 mph N/A   Scattered Clouds
5:33 PM 69.8 °F 51.8 °F 53% 30.05 in 10.0 mi WNW 10.4 mph 23.0 mph N/A   Scattered Clouds
5:53 PM 71.6 °F 51.8 °F 50% 30.04 in 10.0 mi NW 11.5 mph 17.3 mph N/A   Scattered Clouds
6:12 PM 71.6 °F 53.6 °F 53% 30.05 in 10.0 mi NW 13.8 mph 18.4 mph N/A   Scattered Clouds
6:32 PM 69.8 °F 51.8 °F 53% 30.05 in 10.0 mi NW 12.7 mph 19.6 mph N/A   Scattered Clouds
6:53 PM 69.8 °F 51.8 °F 53% 30.05 in 10.0 mi WNW 8.1 mph - N/A   Clear
7:12 PM 69.8 °F 51.8 °F 53% 30.04 in 10.0 mi WNW 8.1 mph - N/A   Clear
7:32 PM 68.0 °F 51.8 °F 56% 30.05 in 10.0 mi WNW 11.5 mph - N/A   Clear
7:52 PM 66.2 °F 51.8 °F 60% 30.05 in 10.0 mi WNW 6.9 mph - N/A   Scattered Clouds
8:13 PM 66.2 °F 51.8 °F 60% 30.05 in 10.0 mi WNW 5.8 mph - N/A   Scattered Clouds
8:32 PM 64.4 °F 51.8 °F 64% 30.05 in 10.0 mi WNW 5.8 mph - N/A   Clear
8:52 PM 64.4 °F 51.8 °F 64% 30.05 in 10.0 mi WNW 3.5 mph - N/A   Scattered Clouds
9:13 PM 62.6 °F 51.8 °F 68% 30.05 in 10.0 mi WNW 3.5 mph - N/A   Scattered Clouds
9:32 PM 60.8 °F 51.8 °F 72% 30.05 in 10.0 mi Calm Calm - N/A   Clear
9:52 PM 60.8 °F 51.8 °F 72% 30.05 in 10.0 mi Calm Calm - N/A   Clear
10:13 PM 59.0 °F 51.8 °F 77% 30.05 in 10.0 mi Calm Calm - N/A   Clear
10:33 PM 53.6 °F 50.0 °F 88% 30.05 in 10.0 mi Calm Calm - N/A   Clear
10:52 PM 57.2 °F 51.8 °F 82% 30.05 in 10.0 mi Calm Calm - N/A   Clear
11:13 PM 55.4 °F 50.0 °F 82% 30.05 in 10.0 mi Calm Calm - N/A   Clear
11:32 PM 53.6 °F 48.2 °F 82% 30.05 in 10.0 mi Calm Calm - N/A   Clear
11:53 PM 51.8 °F 48.2 °F 88% 30.05 in 10.0 mi Calm Calm - N/A   Clear